DELTA 1 DEB, 28266

Orbit data source: Space-Track

DELTA 1 DEB, 28266 is space debris in LEO originally from a launch on Thu, 04 Jul 1968 UTC launched from the Air Force Western Test Range (AFWTR). Debris objects in space refer to the collection of defunct objects orbiting the Earth. Examples of debris include non-operational satellites, rocket bodies, and fragments generated from explosions, collisions, or faulty payload assembly.

Loading next visibility...
Identifier
28266, 1968-055L
Orbit
LEO
Last TLE update
7 months ago
Origin
Manufacturer
Unknown
Mission
Spacecraft
Bus & Motor
Unknown
Mass
Unknown
Launch date (UTC)
1968-07-04 (57 years ago)
Launch vehicle
Unknown
Launch site
Air Force Western Test Range (AFWTR)
Object type
Payload
Rocket body
Debris
Shape & HBR
Unknown
Radar Cross Section
Small (<0.1 m²)

Expand to show TLE details & history

TLE from 7 months ago
0 DELTA 1 DEB
1 28266U 68055L   24346.84198036  .00004802  00000-0  11326-1 0  9994
2 28266 120.6727  23.3688 1757906 196.3028 157.3391 10.77470328460856
Epoch: 2024-12-11T20:12Z
TLE epoch observation values (Epoch: 2024-12-11T20:12:27.103Z)
Latitude
0.00002°
Longitude
-0.77501°
Altitude
3,718.497 km
Speed
5.74 km/s
True Right ascension
01h 33m 28s
True Declination
0° 00' 00"
Sunlit
Object was in daylight at epoch
Visualization orbit readout
Latitude
-53.99821°
Longitude
76.60482°
Altitude
832.676 km
Speed
8.04 km/s
Apparent Right ascension
23h 31m 23s
Apparent Declination
-81° 34' 34"
Sunlit
Object is in daylight
Visualization observer readout
Local Sidereal Time
07:49:03
Azimuth
189.719° SSW
Elevation
-44.286°
Doppler factor
1
Orbital elements
Apogee altitude
3,802.288 km
Perigee altitude
758.169 km
Semi-major axis
8,658.365 km
Eccentricity
0.17579
Inclination
120.6727°
RAAN
23.3688°
Arg. of periapsis
196.3028°
True anomaly
Unknown
Mean anomaly
157.3391°
Eccentric anomaly
Unknown
Mean motion
2.69395 °/min
Orbital period
133.63 mins
BSTAR
0.011326
Loading maneuver chart data...
Loading SW <> Apogee altitude chart data...
Loading historical data...
Loading historical data...
Loading historical data...
Loading historical data...
Loading historical data...
Loading historical data...
Loading historical data...

DELTA 1 DEB Visibility forecast

Observer location: undefined°, undefined°

Span
Click to sort rows by Start time (UTC) header in descending order
Start Az.
Max El. time (UTC)
Max El. Az.
Max El.
End time (UTC)
End Az.
20 mins2025-07-06 01:32:16.774Z69.634° E2025-07-06 01:43:16.774Z105.462° ESE16.731°2025-07-06 01:52:16.774Z138.299° SSE
34 mins2025-07-06 03:34:16.774Z48.624° ENE2025-07-06 03:51:16.774Z122.232° SE40.442°2025-07-06 04:08:16.774Z199.982° SSW
35 mins2025-07-06 05:39:16.774Z41.111° NE2025-07-06 05:56:16.774Z324.316° NNW43.807°2025-07-06 06:14:16.774Z243.325° WSW
30 mins2025-07-06 07:46:16.774Z44.1° NE2025-07-06 07:59:16.774Z343.038° N35.881°2025-07-06 08:16:16.774Z280.352° WNW
26 mins2025-07-06 09:51:16.774Z63.736° ENE2025-07-06 10:01:16.774Z8.472° NNE33.246°2025-07-06 10:17:16.774Z306.878° NW
24 mins2025-07-06 11:56:16.774Z104.31° ESE2025-07-06 12:05:16.774Z29.6° NE40.982°2025-07-06 12:20:16.774Z318.487° NNW
20 mins2025-07-06 14:05:16.774Z165.896° S2025-07-06 14:12:16.774Z242.038° WSW39.827°2025-07-06 14:25:16.774Z313.616° NW
|